period_start,C,m1,H,J0,J1,J2,J3,J4,J5,JA,JB,JC,JD,JJ,JK,JN,#
2015-08-12 00:02:26,0.03,0.19,0.00,24.15,27.72,30.11,4.63,25.26,1014.49,2038.00,3412.98,3179.41,3458.68,349.42,345.16,6.21,0000 0000 0000 0000 000000
2015-08-12 00:07:27,0.03,0.20,0.00,24.16,27.72,30.10,4.76,25.18,1014.32,2038.00,3412.62,3179.05,3458.08,349.89,345.29,6.24,0000 0000 0000 0000 000000
2015-08-12 00:12:29,0.01,0.20,0.00,24.17,27.72,30.10,4.80,25.28,1014.20,2038.00,3412.04,3179.01,3458.00,350.48,346.11,6.27,0000 0000 0000 0000 000000
2015-08-12 00:17:30,0.00,0.20,0.00,24.17,27.72,30.10,4.75,25.22,1014.20,2038.00,3411.99,3179.00,3457.96,349.67,345.33,6.30,0000 0000 0000 0000 000000
2015-08-12 00:22:31,0.03,0.20,0.00,24.17,27.73,30.10,4.76,25.17,1014.22,2038.00,3411.65,3178.99,3457.45,350.22,345.74,6.33,0000 0000 0000 0000 000000
2015-08-12 00:27:32,0.02,0.20,0.00,24.17,27.74,30.09,4.72,25.36,1014.20,2038.00,3411.05,3178.94,3457.05,350.14,345.90,6.36,0000 0000 0000 0000 000000
2015-08-12 00:32:33,0.02,0.20,0.00,24.18,27.74,30.10,4.72,25.25,1014.21,2038.00,3411.00,3178.65,3457.00,350.06,345.58,6.39,0000 0000 0000 0000 000000
2015-08-12 00:37:34,0.01,0.20,0.00,24.19,27.74,30.10,4.71,25.27,1014.21,2038.00,3410.97,3178.31,3456.98,349.40,345.03,6.42,0000 0000 0000 0000 000000
2015-08-12 00:42:35,0.03,0.20,0.00,24.20,27.75,30.09,4.73,25.27,1014.20,2038.00,3410.60,3178.07,3456.80,350.30,345.91,6.45,0000 0000 0000 0000 000000
2015-08-12 00:47:37,0.02,0.20,0.00,24.20,27.75,30.10,4.75,25.26,1014.20,2038.00,3410.05,3178.01,3456.25,350.28,345.74,6.48,0000 0000 0000 0000 000000
2015-08-12 00:52:38,0.00,0.20,0.00,24.20,27.75,30.11,4.71,25.37,1014.19,2038.00,3409.99,3178.00,3456.02,349.85,345.15,6.50,0000 0000 0000 0000 000000
2015-08-12 00:57:39,0.02,0.20,0.00,24.20,27.75,30.12,4.67,25.32,1014.18,2038.00,3409.43,3177.98,3456.00,349.59,345.01,6.53,0000 0000 0000 0000 000000
2015-08-12 01:02:41,0.01,0.20,0.00,24.20,27.75,30.12,4.70,25.41,1014.19,2038.00,3409.03,3177.89,3455.98,349.67,345.07,6.56,0000 0000 0000 0000 000000
2015-08-12 01:07:42,0.03,0.20,0.00,24.21,27.75,30.12,4.78,25.30,1014.19,2038.00,3408.98,3177.61,3455.67,350.17,345.62,6.59,0000 0000 0000 0000 000000
2015-08-12 01:12:43,0.04,0.20,0.00,24.20,27.75,30.12,4.77,25.46,1014.19,2038.00,3408.48,3177.09,3455.05,349.99,345.46,6.62,0000 0000 0000 0000 000000
2015-08-12 01:17:45,0.00,0.20,0.00,24.22,27.75,30.13,4.71,25.39,1014.18,2038.00,3408.03,3177.01,3455.00,349.81,345.25,6.65,0000 0000 0000 0000 000000
2015-08-12 01:22:46,0.00,0.20,0.00,24.22,27.77,30.14,4.71,25.28,1014.18,2038.00,3408.00,3177.00,3454.98,350.11,345.55,6.68,0000 0000 0000 0000 000000
2015-08-12 01:27:47,0.04,0.20,0.00,24.24,27.77,30.13,4.71,25.32,1014.16,2038.00,3407.56,3176.94,3454.49,350.41,345.72,6.71,0000 0000 0000 0000 000000
2015-08-12 01:32:49,0.03,0.21,0.00,24.24,27.77,30.14,4.64,25.28,1014.15,2038.00,3407.02,3176.57,3454.02,349.62,345.22,6.74,0000 0000 0000 0000 000000
2015-08-12 01:37:50,0.02,0.21,0.00,24.25,27.77,30.12,4.78,25.38,1014.13,2037.99,3406.92,3176.07,3453.97,349.97,345.32,6.77,0000 0000 0000 0000 000000
2015-08-12 01:42:52,0.03,0.21,0.00,24.27,27.77,30.13,4.75,25.25,1014.03,2037.99,3406.23,3176.00,3453.71,350.31,345.63,6.80,0000 0000 0000 0000 000000
2015-08-12 01:47:53,0.01,0.21,0.00,24.27,27.77,30.14,4.72,25.30,1013.78,2037.99,3406.01,3176.00,3453.23,349.65,344.99,6.83,0000 0000 0000 0000 000000
2015-08-12 01:52:54,0.00,0.21,0.00,24.27,27.78,30.13,4.71,25.24,1013.74,2037.99,3405.99,3175.99,3453.01,349.95,345.32,6.86,0000 0000 0000 0000 000000
2015-08-12 01:57:55,0.01,0.21,0.00,24.27,27.79,30.14,4.79,25.29,1013.73,2037.99,3405.76,3175.97,3453.00,349.88,345.06,6.89,0000 0000 0000 0000 000000
2015-08-12 02:02:57,0.05,0.21,0.00,24.28,27.80,30.15,4.78,25.36,1013.73,2037.99,3405.06,3175.58,3452.76,350.32,345.52,6.91,0000 0000 0000 0000 000000
2015-08-12 02:07:58,0.03,0.21,0.00,24.31,27.80,30.16,4.75,25.35,1013.71,2037.99,3404.95,3175.10,3452.14,350.12,345.33,6.94,0000 0000 0000 0000 000000
2015-08-12 02:12:59,0.02,0.21,0.00,24.32,27.80,30.16,4.75,25.36,1013.69,2037.98,3404.21,3175.00,3452.00,350.28,345.55,6.97,0000 0000 0000 0000 000000
2015-08-12 02:18:00,0.00,0.21,0.00,24.32,27.80,30.17,4.67,25.23,1013.69,2037.99,3404.00,3175.00,3451.97,349.43,344.63,7.00,0000 0000 0000 0000 000000
2015-08-12 02:23:01,0.01,0.21,0.00,24.32,27.80,30.17,4.83,25.32,1013.69,2037.99,3403.97,3174.97,3451.70,349.85,344.95,7.03,0000 0000 0000 0000 000000
2015-08-12 02:28:02,0.05,0.21,0.00,24.32,27.82,30.18,4.74,25.25,1013.69,2037.99,3403.27,3174.62,3451.07,350.00,345.26,7.06,0000 0000 0000 0000 000000
2015-08-12 02:33:03,0.02,0.21,0.00,24.35,27.82,30.18,4.74,25.34,1013.69,2037.99,3403.00,3174.15,3451.00,349.83,344.89,7.09,0000 0000 0000 0000 000000
2015-08-12 02:38:05,0.00,0.22,0.00,24.36,27.82,30.19,4.74,25.31,1013.69,2037.99,3402.87,3174.01,3450.93,349.66,344.67,7.12,0000 0000 0000 0000 000000
2015-08-12 02:43:06,0.04,0.22,0.00,24.37,27.83,30.20,4.75,25.31,1013.69,2037.99,3402.15,3174.00,3450.30,349.87,344.86,7.15,0000 0000 0000 0000 000000
2015-08-12 02:48:07,0.00,0.22,0.00,24.39,27.85,30.20,4.74,25.27,1013.69,2037.99,3401.99,3173.96,3450.02,350.46,345.52,7.18,0000 0000 0000 0000 000000
2015-08-12 02:53:08,0.04,0.22,0.00,24.42,27.85,30.20,4.73,25.23,1013.69,2037.98,3401.62,3173.42,3449.95,350.23,345.36,7.21,0000 0000 0000 0000 000000
2015-08-12 02:58:10,0.04,0.22,0.00,24.44,27.85,30.21,4.69,25.24,1013.68,2037.99,3401.05,3173.05,3449.35,349.80,344.86,7.24,0000 0000 0000 0000 000000
2015-08-12 03:03:11,0.00,0.22,0.00,24.45,27.87,30.22,4.68,25.32,1013.67,2037.99,3400.99,3173.00,3449.01,349.97,344.99,7.27,0000 0000 0000 0000 000000
2015-08-12 03:08:12,0.01,0.22,0.00,24.46,27.87,30.22,4.76,25.27,1013.59,2037.98,3400.57,3173.00,3448.97,350.48,345.30,7.30,0000 0000 0000 0000 000000
2015-08-12 03:13:13,0.04,0.22,0.00,24.47,27.87,30.22,4.66,25.34,1013.50,2037.96,3400.01,3172.82,3448.42,349.66,344.47,7.32,0000 0000 0000 0000 000000
2015-08-12 03:18:14,0.04,0.22,0.00,24.50,27.89,30.23,4.68,25.29,1013.31,2037.94,3399.69,3172.15,3448.02,349.96,344.77,7.35,0000 0000 0000 0000 000000
2015-08-12 03:23:16,0.01,0.22,0.00,24.52,27.90,30.24,4.74,25.32,1013.22,2037.94,3399.10,3172.00,3447.99,349.45,344.39,7.38,0000 0000 0000 0000 000000
2015-08-12 03:28:17,0.01,0.22,0.00,24.54,27.91,30.25,4.68,25.19,1013.22,2037.89,3398.94,3171.99,3447.46,349.75,344.49,7.41,0000 0000 0000 0000 000000
2015-08-12 03:33:18,0.01,0.22,0.00,24.55,27.92,30.27,4.71,25.35,1013.21,2037.75,3398.38,3171.89,3447.02,349.67,344.42,7.44,0000 0000 0000 0000 000000
2015-08-12 03:38:19,0.03,0.22,0.00,24.55,27.93,30.27,4.74,25.24,1013.24,2037.78,3398.01,3171.48,3446.97,350.37,345.13,7.47,0000 0000 0000 0000 000000
2015-08-12 03:43:20,-0.02,0.22,0.00,24.57,27.95,30.29,4.73,25.37,1013.22,2037.34,3397.87,3171.02,3446.29,349.49,344.34,7.50,0000 0000 0000 0000 000000
2015-08-12 03:48:21,-0.01,0.22,0.00,24.58,27.95,30.30,4.79,25.28,1013.23,2037.14,3397.24,3171.00,3446.00,350.21,344.98,7.53,0000 0000 0000 0000 000000
2015-08-12 03:53:22,0.00,0.22,0.00,24.60,27.97,30.31,4.73,25.39,1013.21,2037.10,3397.00,3170.96,3445.95,350.08,344.86,7.56,0000 0000 0000 0000 000000
2015-08-12 03:58:24,0.03,0.22,0.00,24.61,27.97,30.32,4.62,25.32,1013.22,2037.05,3396.77,3170.66,3445.37,349.71,344.30,7.59,0000 0000 0000 0000 000000
2015-08-12 04:03:25,0.04,0.23,0.00,24.61,28.00,30.33,4.73,25.31,1013.21,2037.01,3396.04,3170.05,3445.01,349.72,344.50,7.62,0000 0000 0000 0000 000000
2015-08-12 04:08:26,0.00,0.23,0.00,24.62,28.00,30.35,4.75,25.29,1013.20,2037.00,3395.92,3170.00,3444.94,349.95,344.74,7.65,0000 0000 0000 0000 000000
2015-08-12 04:13:27,0.04,0.23,0.00,24.64,28.01,30.36,4.72,25.38,1013.20,2037.00,3395.23,3169.97,3444.28,349.95,344.56,7.68,0000 0000 0000 0000 000000
2015-08-12 04:18:29,0.02,0.23,0.00,24.65,28.02,30.36,4.76,25.32,1013.19,2037.00,3395.00,3169.69,3444.01,350.15,344.58,7.71,0000 0000 0000 0000 000000
2015-08-12 04:23:30,0.02,0.23,0.00,24.65,28.03,30.37,4.74,25.41,1013.16,2037.00,3394.76,3169.13,3443.98,350.14,344.71,7.73,0000 0000 0000 0000 000000
2015-08-12 04:28:31,0.03,0.23,0.00,24.67,28.05,30.38,4.71,25.37,1013.11,2037.00,3394.11,3169.00,3443.53,349.80,344.36,7.76,0000 0000 0000 0000 000000
2015-08-12 04:33:33,0.01,0.23,0.00,24.67,28.05,30.39,4.79,25.37,1013.12,2037.00,3393.94,3168.98,3443.02,350.52,344.86,7.79,0000 0000 0000 0000 000000
2015-08-12 04:38:34,0.03,0.23,0.00,24.69,28.07,30.42,4.70,25.38,1013.13,2036.98,3393.37,3168.74,3442.91,350.23,344.75,7.82,0000 0000 0000 0000 000000
2015-08-12 04:43:35,0.04,0.23,0.00,24.69,28.07,30.42,4.79,25.41,1013.15,2036.98,3393.01,3168.18,3442.43,350.21,344.71,7.85,0000 0000 0000 0000 000000
2015-08-12 04:48:36,0.00,0.23,0.00,24.70,28.10,30.42,4.75,25.33,1013.13,2036.96,3392.92,3168.02,3442.02,350.22,344.79,7.88,0000 0000 0000 0000 000000
2015-08-12 04:53:37,0.02,0.23,0.00,24.71,28.10,30.43,4.73,25.36,1013.04,2036.96,3392.15,3168.00,3441.98,349.82,344.30,7.91,0000 0000 0000 0000 000000
2015-08-12 04:58:39,0.02,0.23,0.00,24.73,28.11,30.45,4.76,25.34,1012.81,2036.92,3391.99,3167.95,3441.47,350.68,345.00,7.94,0000 0000 0000 0000 000000
2015-08-12 05:03:40,0.04,0.23,0.00,24.74,28.12,30.46,4.71,25.38,1012.77,2036.89,3391.64,3167.58,3441.03,350.14,344.56,7.97,0000 0000 0000 0000 000000
2015-08-12 05:08:41,0.01,0.24,0.00,24.75,28.13,30.47,4.70,25.23,1012.75,2036.84,3391.03,3167.08,3441.00,349.87,344.22,8.00,0000 0000 0000 0000 000000
2015-08-12 05:13:42,-0.04,0.23,0.00,24.75,28.15,30.48,4.68,25.38,1012.77,2036.64,3391.00,3167.00,3440.70,349.67,343.89,8.03,0000 0000 0000 0000 000000
2015-08-12 05:18:43,-0.00,0.23,0.00,24.77,28.15,30.49,4.77,25.24,1012.75,2036.49,3390.92,3166.99,3440.13,350.51,344.78,8.06,0000 0000 0000 0000 000000
2015-08-12 05:23:44,0.01,0.23,0.00,24.77,28.17,30.50,4.75,25.31,1012.75,2036.27,3390.14,3166.77,3440.00,350.05,344.31,8.09,0000 0000 0000 0000 000000
2015-08-12 05:28:46,0.04,0.24,0.00,24.79,28.17,30.51,4.69,25.25,1012.81,2036.19,3389.98,3166.11,3439.89,349.84,344.15,8.12,0000 0000 0000 0000 000000
2015-08-12 05:33:47,0.03,0.24,0.00,24.80,28.18,30.53,4.77,25.30,1012.84,2036.12,3389.40,3166.00,3439.18,349.96,344.26,8.14,0000 0000 0000 0000 000000
2015-08-12 05:38:48,-0.01,0.24,0.00,24.80,28.20,30.53,4.68,25.32,1012.82,2036.06,3389.00,3165.95,3438.99,349.97,344.35,8.17,0000 0000 0000 0000 000000
2015-08-12 05:43:49,0.06,0.24,0.00,24.80,28.20,30.54,4.78,25.25,1012.72,2036.01,3388.43,3165.41,3438.55,350.26,344.55,8.20,0000 0000 0000 0000 000000
2015-08-12 05:48:50,0.02,0.24,0.00,24.82,28.21,30.55,4.75,25.30,1012.72,2036.00,3388.00,3165.03,3438.03,350.08,344.40,8.23,0000 0000 0000 0000 000000
2015-08-12 05:53:51,0.00,0.24,0.00,24.82,28.22,30.56,4.69,25.20,1012.75,2036.00,3387.86,3165.00,3437.98,350.02,344.35,8.26,0000 0000 0000 0000 000000
2015-08-12 05:58:53,0.03,0.24,0.00,24.84,28.23,30.57,4.77,25.24,1012.74,2036.00,3387.11,3164.98,3437.66,350.00,344.11,8.29,0000 0000 0000 0000 000000
2015-08-12 06:03:53,0.05,0.24,0.00,24.84,28.25,30.58,4.77,25.35,1012.76,2036.00,3386.95,3164.38,3437.04,350.06,344.19,8.32,0000 0000 0000 0000 000000
2015-08-12 06:08:55,0.02,0.24,0.00,24.84,28.25,30.59,4.73,25.22,1012.73,2036.00,3386.27,3164.02,3436.95,349.86,344.14,8.35,0000 0000 0000 0000 000000
2015-08-12 06:13:56,0.03,0.24,0.00,24.85,28.27,30.60,4.68,25.24,1012.73,2036.00,3385.96,3164.00,3436.23,349.99,344.21,8.38,0000 0000 0000 0000 000000
2015-08-12 06:18:58,0.02,0.24,0.00,24.85,28.27,30.60,4.70,25.15,1012.74,2036.00,3385.47,3163.96,3436.00,350.13,344.36,8.41,0000 0000 0000 0000 000000
2015-08-12 06:23:59,0.03,0.24,0.00,24.87,28.28,30.62,4.72,25.19,1012.72,2035.99,3385.06,3163.60,3435.97,349.86,344.00,8.44,0000 0000 0000 0000 000000
2015-08-12 06:29:00,0.04,0.25,0.00,24.87,28.30,30.62,4.62,25.21,1012.74,2035.97,3384.87,3163.03,3435.21,349.87,343.93,8.47,0000 0000 0000 0000 000000
2015-08-12 06:34:01,0.02,0.25,0.00,24.89,28.30,30.64,4.73,25.17,1012.72,2035.98,3384.12,3162.99,3435.00,349.67,343.85,8.50,0000 0000 0000 0000 000000
2015-08-12 06:39:02,0.00,0.25,0.00,24.90,28.32,30.64,4.78,25.24,1012.71,2035.96,3383.99,3162.97,3434.91,350.29,344.40,8.53,0000 0000 0000 0000 000000
2015-08-12 06:44:04,0.07,0.25,0.00,24.93,28.32,30.65,4.72,25.18,1012.71,2035.95,3383.39,3162.30,3434.22,349.77,343.88,8.55,0000 0000 0000 0000 000000
2015-08-12 06:49:05,-0.01,0.25,0.00,24.96,28.34,30.66,4.82,25.27,1012.71,2035.85,3383.01,3162.01,3434.00,350.12,344.18,8.58,0000 0000 0000 0000 000000
2015-08-12 06:54:06,0.02,0.25,0.00,24.97,28.35,30.66,4.74,25.23,1012.71,2035.82,3382.89,3162.00,3433.93,349.91,343.90,8.61,0000 0000 0000 0000 000000
2015-08-12 06:59:07,0.00,0.25,0.00,25.00,28.36,30.67,4.73,25.13,1012.71,2035.59,3382.12,3161.95,3433.15,350.25,344.32,8.64,0000 0000 0000 0000 000000
2015-08-12 07:04:08,-0.02,0.25,0.00,25.02,28.37,30.68,4.73,25.20,1012.71,2035.34,3381.99,3161.32,3433.00,350.02,344.20,8.67,0000 0000 0000 0000 000000
2015-08-12 07:09:10,0.02,0.25,0.00,25.04,28.38,30.69,4.69,25.21,1012.71,2035.15,3381.44,3161.03,3432.88,350.44,344.39,8.70,0000 0000 0000 0000 000000
2015-08-12 07:14:11,0.01,0.25,0.00,25.05,28.40,30.71,4.68,25.19,1012.71,2035.03,3381.01,3160.99,3432.12,349.67,343.77,8.73,0000 0000 0000 0000 000000
2015-08-12 07:19:12,0.01,0.25,0.00,25.06,28.41,30.72,4.62,25.17,1012.70,2035.05,3380.94,3160.95,3432.01,349.98,343.98,8.76,0000 0000 0000 0000 000000
2015-08-12 07:24:13,0.05,0.25,0.00,25.07,28.42,30.74,4.68,25.20,1012.69,2035.02,3380.16,3160.27,3431.84,349.83,343.70,8.79,0000 0000 0000 0000 000000
2015-08-12 07:29:15,0.02,0.25,0.00,25.09,28.44,30.76,4.67,25.23,1012.70,2035.00,3379.94,3160.00,3431.13,349.72,343.62,8.82,0000 0000 0000 0000 000000
2015-08-12 07:34:16,0.03,0.25,0.00,25.10,28.45,30.77,4.61,25.07,1012.68,2035.00,3379.14,3159.98,3430.99,349.65,343.58,8.85,0000 0000 0000 0000 000000
2015-08-12 07:39:17,0.03,0.25,0.00,25.11,28.47,30.78,4.74,25.12,1012.64,2035.00,3378.98,3159.67,3430.62,350.29,344.26,8.88,0000 0000 0000 0000 000000
2015-08-12 07:44:19,0.05,0.26,0.00,25.12,28.47,30.81,4.67,25.08,1012.48,2035.00,3378.39,3159.08,3430.07,349.96,343.82,8.91,0000 0000 0000 0000 000000
2015-08-12 07:49:20,0.00,0.26,0.00,25.12,28.50,30.82,4.67,25.18,1012.31,2034.99,3378.02,3159.00,3430.00,349.89,343.56,8.93,0000 0000 0000 0000 000000
2015-08-12 07:54:21,0.04,0.26,0.00,25.12,28.50,30.83,4.67,25.07,1012.26,2034.99,3377.73,3158.89,3429.64,349.56,343.26,8.96,0000 0000 0000 0000 000000
2015-08-12 07:59:22,0.04,0.26,0.00,25.13,28.52,30.84,4.75,25.18,1012.24,2034.97,3377.06,3158.30,3429.03,350.02,343.84,8.99,0000 0000 0000 0000 000000
2015-08-12 08:04:23,0.01,0.26,0.00,25.15,28.53,30.86,4.72,25.11,1012.23,2034.96,3376.98,3158.03,3428.98,349.30,343.19,9.02,0000 0000 0000 0000 000000
2015-08-12 08:09:24,0.04,0.26,0.00,25.15,28.55,30.87,4.71,25.14,1012.24,2034.94,3376.34,3158.00,3428.50,349.50,343.21,9.05,0000 0000 0000 0000 000000
2015-08-12 08:14:26,-0.01,0.26,0.00,25.15,28.55,30.89,4.75,25.22,1012.24,2034.70,3375.99,3157.64,3428.01,349.80,343.40,9.08,0000 0000 0000 0000 000000
2015-08-12 08:19:27,-0.00,0.26,0.00,25.15,28.57,30.90,4.66,25.13,1012.23,2034.46,3375.49,3157.07,3427.93,350.15,343.83,9.11,0000 0000 0000 0000 000000
2015-08-12 08:24:28,0.03,0.26,0.00,25.17,28.58,30.92,4.62,25.26,1012.22,2034.32,3375.01,3157.00,3427.27,349.41,343.05,9.14,0000 0000 0000 0000 000000
2015-08-12 08:29:30,0.01,0.26,0.00,25.17,28.60,30.93,4.64,25.17,1012.22,2034.33,3374.89,3156.99,3427.01,349.80,343.23,9.17,0000 0000 0000 0000 000000
2015-08-12 08:34:31,0.02,0.26,0.00,25.19,28.60,30.94,4.69,25.13,1012.22,2034.36,3374.24,3156.77,3426.99,350.11,343.85,9.20,0000 0000 0000 0000 000000
2015-08-12 08:39:32,0.02,0.26,0.00,25.20,28.62,30.95,4.72,25.14,1012.22,2034.19,3373.99,3156.15,3426.67,349.86,343.46,9.23,0000 0000 0000 0000 000000
2015-08-12 08:44:34,0.03,0.26,0.00,25.19,28.62,30.96,4.73,25.16,1012.22,2034.13,3373.51,3156.00,3426.05,350.34,343.95,9.26,0000 0000 0000 0000 000000
2015-08-12 08:49:35,-0.01,0.26,0.00,25.20,28.65,30.98,4.67,25.18,1012.22,2034.09,3373.02,3156.00,3425.99,349.91,343.61,9.29,0000 0000 0000 0000 000000
2015-08-12 08:54:36,0.01,0.26,0.00,25.20,28.65,30.99,4.60,25.13,1012.22,2034.05,3372.92,3155.92,3425.82,349.34,343.06,9.32,0000 0000 0000 0000 000000
2015-08-12 08:59:37,0.07,0.27,0.00,25.20,28.66,31.00,4.62,25.23,1012.22,2034.03,3372.16,3155.18,3425.09,349.12,342.82,9.34,0000 0000 0000 0000 000000
2015-08-12 09:04:39,0.01,0.27,0.00,25.20,28.67,31.01,4.74,25.27,1012.22,2034.02,3372.00,3155.02,3425.00,350.36,343.97,9.37,0000 0000 0000 0000 000000
2015-08-12 09:09:40,0.00,0.27,0.00,25.20,28.68,31.02,4.77,25.29,1012.22,2034.03,3371.90,3155.00,3424.95,350.42,343.98,9.40,0000 0000 0000 0000 000000
2015-08-12 09:14:41,0.05,0.27,0.00,25.21,28.70,31.03,4.76,25.20,1012.21,2034.01,3371.09,3154.87,3424.19,350.53,344.04,9.43,0000 0000 0000 0000 000000
2015-08-12 09:19:42,0.03,0.27,0.00,25.22,28.70,31.04,4.70,25.27,1012.21,2034.00,3370.96,3154.27,3424.00,349.54,343.10,9.46,0000 0000 0000 0000 000000
2015-08-12 09:24:43,0.03,0.27,0.00,25.22,28.71,31.05,4.76,25.23,1012.19,2034.00,3370.30,3154.00,3423.97,350.29,343.83,9.49,0000 0000 0000 0000 000000
2015-08-12 09:29:44,0.02,0.27,0.00,25.22,28.72,31.05,4.69,25.25,1012.07,2034.00,3370.00,3153.99,3423.35,349.72,343.33,9.52,0000 0000 0000 0000 000000
2015-08-12 09:34:46,0.01,0.27,0.00,25.22,28.72,31.06,4.65,25.18,1012.00,2033.99,3369.82,3153.93,3423.04,350.10,343.86,9.55,0000 0000 0000 0000 000000
2015-08-12 09:39:47,0.04,0.27,0.00,25.22,28.73,31.07,4.70,25.23,1011.89,2033.99,3369.14,3153.50,3422.95,349.86,343.36,9.58,0000 0000 0000 0000 000000
2015-08-12 09:44:48,0.03,0.27,0.00,25.22,28.75,31.07,4.66,25.23,1011.77,2033.99,3369.00,3153.03,3422.43,349.96,343.19,9.61,0000 0000 0000 0000 000000
2015-08-12 09:49:49,0.02,0.27,0.00,25.24,28.75,31.09,4.63,25.20,1011.76,2033.98,3368.55,3153.00,3422.03,349.80,343.08,9.64,0000 0000 0000 0000 000000
2015-08-12 09:54:50,0.00,0.27,0.00,25.24,28.75,31.09,4.69,25.16,1011.75,2033.98,3368.03,3152.99,3422.00,349.98,343.23,9.67,0000 0000 0000 0000 000000
2015-08-12 09:59:51,0.00,0.27,0.00,25.23,28.77,31.10,4.68,25.18,1011.75,2033.98,3368.00,3152.92,3421.99,350.01,343.48,9.70,0000 0000 0000 0000 000000
2015-08-12 10:04:53,0.03,0.27,0.00,25.23,28.77,31.10,4.71,25.18,1011.75,2033.99,3367.94,3152.65,3421.75,350.04,343.64,9.73,0000 0000 0000 0000 000000
2015-08-12 10:09:54,0.05,0.28,0.00,25.23,28.77,31.10,4.64,25.13,1011.74,2033.98,3367.36,3152.10,3421.10,349.57,343.04,9.75,0000 0000 0000 0000 000000
2015-08-12 10:14:56,-0.00,0.28,0.00,25.23,28.77,31.11,4.74,25.27,1011.74,2033.94,3367.00,3152.00,3421.00,350.08,343.68,9.78,0000 0000 0000 0000 000000
2015-08-12 10:19:57,0.01,0.28,0.00,25.23,28.79,31.12,4.76,25.31,1011.73,2033.96,3366.89,3152.00,3420.98,349.57,343.01,9.81,0000 0000 0000 0000 000000
2015-08-12 10:24:58,0.03,0.28,0.00,25.23,28.80,31.13,4.76,25.26,1011.73,2033.96,3366.20,3151.96,3420.68,350.33,343.58,9.84,0000 0000 0000 0000 000000
2015-08-12 10:29:59,0.02,0.28,0.00,25.23,28.80,31.13,4.75,25.19,1011.73,2033.95,3366.02,3151.76,3420.12,349.92,343.29,9.87,0000 0000 0000 0000 000000
2015-08-12 10:35:00,0.03,0.28,0.00,25.22,28.80,31.13,4.69,25.18,1011.73,2033.96,3365.99,3151.26,3420.01,349.95,343.20,9.90,0000 0000 0000 0000 000000
2015-08-12 10:40:01,0.01,0.28,0.00,25.22,28.80,31.14,4.70,25.18,1011.73,2033.95,3365.87,3151.08,3420.00,350.20,343.55,9.93,0000 0000 0000 0000 000000
2015-08-12 10:45:03,0.01,0.28,0.00,25.21,28.81,31.15,4.77,25.19,1011.72,2033.91,3365.24,3151.00,3419.96,350.41,343.79,9.96,0000 0000 0000 0000 000000
2015-08-12 10:50:04,-0.00,0.28,0.00,25.22,28.82,31.15,4.74,25.25,1011.67,2033.84,3365.00,3151.00,3419.54,350.02,343.53,9.99,0000 0000 0000 0000 000000
2015-08-12 10:55:05,0.01,0.28,0.00,25.22,28.82,31.16,4.78,25.19,1011.68,2033.73,3364.98,3150.97,3419.04,350.15,343.64,10.02,0000 0000 0000 0000 000000
2015-08-12 11:00:07,0.02,0.28,0.00,25.22,28.82,31.16,4.71,25.16,1011.57,2033.82,3364.86,3150.91,3419.00,350.03,343.42,10.05,0000 0000 0000 0000 000000
2015-08-12 11:05:08,-0.00,0.28,0.00,25.22,28.82,31.14,4.74,25.12,1011.52,2033.56,3364.14,3150.34,3418.99,350.27,343.67,10.08,0000 0000 0000 0000 000000
2015-08-12 11:10:09,0.04,0.28,0.00,25.22,28.82,31.15,4.72,25.17,1011.48,2033.70,3364.01,3150.06,3418.95,349.92,343.28,10.11,0000 0000 0000 0000 000000
2015-08-12 11:15:10,-0.04,0.28,0.00,25.22,28.82,31.16,4.73,25.16,1011.37,2033.39,3363.99,3150.01,3418.31,350.17,343.68,10.14,0000 0000 0000 0000 000000
2015-08-12 11:20:11,0.04,0.28,0.00,25.22,28.82,31.15,4.65,25.13,1011.37,2033.57,3363.91,3150.00,3418.09,349.83,343.16,10.16,0000 0000 0000 0000 000000
2015-08-12 11:25:13,-0.00,0.28,0.00,25.22,28.83,31.16,4.79,25.29,1011.38,2033.47,3363.40,3150.00,3418.01,349.83,343.29,10.19,0000 0000 0000 0000 000000
2015-08-12 11:30:14,-0.02,0.28,0.00,25.21,28.83,31.17,4.71,25.20,1011.37,2033.37,3363.03,3149.99,3418.00,349.87,343.17,10.22,0000 0000 0000 0000 000000
2015-08-12 11:35:15,0.00,0.28,0.00,25.20,28.84,31.17,4.77,25.18,1011.45,2033.28,3363.00,3149.92,3417.97,350.12,343.46,10.25,0000 0000 0000 0000 000000
2015-08-12 11:40:16,0.05,0.28,0.00,25.20,28.84,31.17,4.77,25.10,1011.46,2033.43,3362.99,3149.88,3417.94,349.97,343.34,10.28,0000 0000 0000 0000 000000
2015-08-12 11:45:18,0.03,0.28,0.00,25.20,28.85,31.19,4.68,25.06,1011.43,2033.39,3362.72,3149.42,3417.49,349.85,343.34,10.31,0000 0000 0000 0000 000000
2015-08-12 11:50:19,0.02,0.28,0.00,25.20,28.85,31.17,4.71,25.09,1011.40,2033.35,3362.16,3149.07,3417.08,350.40,343.74,10.34,0000 0000 0000 0000 000000
2015-08-12 11:55:20,-0.01,0.28,0.00,25.20,28.85,31.17,4.74,25.16,1011.40,2033.27,3362.01,3149.02,3417.00,350.25,343.51,10.37,0000 0000 0000 0000 000000
2015-08-12 12:00:22,-0.01,0.28,0.00,25.20,28.85,31.17,4.74,25.15,1011.48,2033.20,3362.00,3149.00,3417.00,349.61,343.06,10.40,0000 0000 0000 0000 000000
2015-08-12 12:05:23,0.01,0.28,0.00,25.20,28.85,31.18,4.71,25.08,1011.51,2033.29,3361.98,3149.00,3416.99,349.76,343.11,10.43,0000 0000 0000 0000 000000
2015-08-12 12:10:25,0.04,0.29,0.00,25.20,28.85,31.17,4.67,25.07,1011.38,2033.45,3361.71,3149.00,3416.97,349.97,343.36,10.46,0000 0000 0000 0000 000000
2015-08-12 12:15:26,0.00,0.29,0.00,25.19,28.85,31.18,4.73,25.13,1011.27,2033.31,3361.10,3148.99,3416.80,350.60,343.91,10.49,0000 0000 0000 0000 000000
2015-08-12 12:20:27,0.02,0.29,0.00,25.17,28.85,31.18,4.68,25.07,1011.25,2033.32,3361.01,3148.94,3416.24,350.21,343.60,10.52,0000 0000 0000 0000 000000
2015-08-12 12:25:29,0.02,0.29,0.00,25.17,28.85,31.17,4.76,25.13,1011.26,2033.47,3361.00,3148.89,3416.06,350.12,343.24,10.55,0000 0000 0000 0000 000000
2015-08-12 12:30:30,0.00,0.29,0.00,25.17,28.85,31.17,4.73,25.13,1011.25,2033.36,3360.98,3148.48,3416.01,349.59,342.96,10.57,0000 0000 0000 0000 000000
2015-08-12 12:35:31,0.01,0.29,0.00,25.17,28.85,31.18,4.70,25.05,1011.25,2033.31,3360.79,3148.10,3416.00,350.16,343.40,10.60,0000 0000 0000 0000 000000
2015-08-12 12:40:32,0.04,0.29,0.00,25.17,28.85,31.18,4.68,25.05,1011.25,2033.33,3360.20,3148.02,3415.99,349.84,343.21,10.63,0000 0000 0000 0000 000000
2015-08-12 12:45:34,0.00,0.29,0.00,25.17,28.85,31.19,4.75,25.07,1011.25,2033.32,3360.03,3148.00,3415.93,349.93,343.18,10.66,0000 0000 0000 0000 000000
2015-08-12 12:50:35,-0.00,0.29,0.00,25.17,28.85,31.18,4.66,25.07,1011.25,2033.37,3360.00,3148.00,3415.68,349.88,343.21,10.69,0000 0000 0000 0000 000000
2015-08-12 12:55:36,0.02,0.29,0.00,25.15,28.85,31.18,4.71,25.07,1011.25,2033.32,3359.98,3148.00,3415.16,350.04,343.44,10.72,0000 0000 0000 0000 000000
2015-08-12 13:00:37,0.03,0.29,0.00,25.15,28.85,31.17,4.67,25.14,1011.23,2033.39,3359.93,3147.99,3415.03,349.76,343.10,10.75,0000 0000 0000 0000 000000
2015-08-12 13:05:39,0.02,0.29,0.00,25.15,28.85,31.18,4.76,25.14,1011.19,2033.47,3359.73,3147.98,3415.02,350.33,343.59,10.78,0000 0000 0000 0000 000000